Time,TemperatureF,DewpointF,PressureIn,WindDirection,WindDirectionDegrees,WindSpeedMPH,WindSpeedGustMPH,Humidity,HourlyPrecipIn,Conditions,Clouds,dailyrainin,SoftwareType,DateUTC
2013-03-05 00:01:00,61.2,40.3,30.00,NNE,16,1.0,3.0,46,0.00,,---,0.00,VWS V14.00,2013-03-05 08:01:00,
2013-03-05 00:10:00,60.9,39.4,30.00,NNE,16,6.0,10.0,45,0.00,,---,0.00,VWS V14.00,2013-03-05 08:10:00,
2013-03-05 00:15:00,61.3,39.2,30.00,NNE,16,3.0,12.0,44,0.00,,---,0.00,VWS V14.00,2013-03-05 08:15:00,
2013-03-05 00:20:00,60.8,37.6,30.00,NNE,16,2.0,7.0,42,0.00,,---,0.00,VWS V14.00,2013-03-05 08:20:00,
2013-03-05 00:25:00,60.3,35.9,30.00,NNE,16,4.0,9.0,40,0.00,,---,0.00,VWS V14.00,2013-03-05 08:25:00,
2013-03-05 00:30:00,60.6,36.2,30.00,NNE,16,4.0,10.0,40,0.00,,---,0.00,VWS V14.00,2013-03-05 08:30:00,
2013-03-05 00:35:00,60.7,37.5,30.00,NNE,16,5.0,9.0,42,0.00,,---,0.00,VWS V14.00,2013-03-05 08:35:00,
2013-03-05 00:40:00,60.8,38.2,30.00,NNE,16,4.0,8.0,43,0.00,,---,0.00,VWS V14.00,2013-03-05 08:40:00,
2013-03-05 00:45:00,60.9,37.7,30.00,NNE,16,2.0,10.0,42,0.00,,---,0.00,VWS V14.00,2013-03-05 08:45:00,
2013-03-05 00:50:00,61.0,36.5,30.00,NNE,16,4.0,5.0,40,0.00,,---,0.00,VWS V14.00,2013-03-05 08:50:00,
2013-03-05 00:55:00,61.6,33.0,30.00,NNE,16,3.0,8.0,34,0.00,,---,0.00,VWS V14.00,2013-03-05 08:55:00,
2013-03-05 01:00:00,62.3,32.1,29.99,NNE,16,1.0,4.0,32,0.00,,---,0.00,VWS V14.00,2013-03-05 09:00:00,
2013-03-05 01:05:00,61.8,32.4,30.00,NNE,16,0.0,4.0,33,0.00,,---,0.00,VWS V14.00,2013-03-05 09:05:00,
2013-03-05 01:10:00,61.3,32.7,30.00,NNE,16,3.0,4.0,34,0.00,,---,0.00,VWS V14.00,2013-03-05 09:10:00,
2013-03-05 01:15:00,61.3,32.7,29.99,NNE,16,2.0,4.0,34,0.00,,---,0.00,VWS V14.00,2013-03-05 09:15:00,
2013-03-05 01:20:00,61.1,32.5,30.00,NNE,16,0.0,3.0,34,0.00,,---,0.00,VWS V14.00,2013-03-05 09:20:00,
2013-03-05 01:25:00,61.2,33.3,30.00,NNE,16,0.0,0.0,35,0.00,,---,0.00,VWS V14.00,2013-03-05 09:25:00,
2013-03-05 01:30:00,61.5,33.6,30.00,NNE,16,0.0,0.0,35,0.00,,---,0.00,VWS V14.00,2013-03-05 09:30:00,
2013-03-05 01:35:00,62.3,34.3,30.00,NNE,16,0.0,0.0,35,0.00,,---,0.00,VWS V14.00,2013-03-05 09:35:00,
2013-03-05 01:40:00,62.7,33.2,30.00,NNE,16,0.0,0.0,33,0.00,,---,0.00,VWS V14.00,2013-03-05 09:40:00,
2013-03-05 01:45:00,61.8,33.9,30.00,NNE,16,2.0,6.0,35,0.00,,---,0.00,VWS V14.00,2013-03-05 09:45:00,
2013-03-05 01:50:00,61.2,34.1,29.99,NNE,16,3.0,6.0,36,0.00,,---,0.00,VWS V14.00,2013-03-05 09:50:00,
2013-03-05 01:55:00,61.0,34.6,29.99,NNE,16,4.0,5.0,37,0.00,,---,0.00,VWS V14.00,2013-03-05 09:55:00,
2013-03-05 02:00:00,61.0,34.6,29.99,NNE,16,4.0,5.0,37,0.00,,---,0.00,VWS V14.00,2013-03-05 10:00:00,
2013-03-05 02:05:00,61.5,35.0,29.99,NNE,16,2.0,5.0,37,0.00,,---,0.00,VWS V14.00,2013-03-05 10:05:00,
2013-03-05 02:10:00,62.0,34.8,30.00,NNE,16,1.0,6.0,36,0.00,,---,0.00,VWS V14.00,2013-03-05 10:10:00,
2013-03-05 02:15:00,62.0,34.8,29.99,NNE,16,3.0,6.0,36,0.00,,---,0.00,VWS V14.00,2013-03-05 10:15:00,
2013-03-05 02:20:00,61.7,34.5,29.99,NNE,16,2.0,5.0,36,0.00,,---,0.00,VWS V14.00,2013-03-05 10:20:00,
2013-03-05 02:25:00,61.7,34.5,29.99,NNE,16,3.0,5.0,36,0.00,,---,0.00,VWS V14.00,2013-03-05 10:25:00,
2013-03-05 02:30:00,61.9,34.7,29.98,NNE,16,5.0,6.0,36,0.00,,---,0.00,VWS V14.00,2013-03-05 10:30:00,
2013-03-05 02:35:00,62.2,34.9,29.98,NNE,16,6.0,9.0,36,0.00,,---,0.00,VWS V14.00,2013-03-05 10:35:00,
2013-03-05 02:40:00,62.4,35.1,29.98,NNE,16,2.0,8.0,36,0.00,,---,0.00,VWS V14.00,2013-03-05 10:40:00,
2013-03-05 02:45:00,62.5,35.2,29.98,NNE,16,1.0,4.0,36,0.00,,---,0.00,VWS V14.00,2013-03-05 10:45:00,
2013-03-05 02:50:00,62.2,34.9,29.98,NNE,16,2.0,5.0,36,0.00,,---,0.00,VWS V14.00,2013-03-05 10:50:00,
2013-03-05 02:55:00,62.2,34.9,29.97,NNE,16,2.0,6.0,36,0.00,,---,0.00,VWS V14.00,2013-03-05 10:55:00,
2013-03-05 03:00:00,62.2,34.9,29.97,NNE,16,2.0,5.0,36,0.00,,---,0.00,VWS V14.00,2013-03-05 11:00:00,
2013-03-05 03:05:00,62.1,34.8,29.98,NNE,16,3.0,6.0,36,0.00,,---,0.00,VWS V14.00,2013-03-05 11:05:00,
2013-03-05 03:10:00,62.0,34.8,29.97,NNE,16,2.0,5.0,36,0.00,,---,0.00,VWS V14.00,2013-03-05 11:10:00,
2013-03-05 03:15:00,62.1,34.8,29.97,NNE,16,0.0,4.0,36,0.00,,---,0.00,VWS V14.00,2013-03-05 11:15:00,
2013-03-05 03:20:00,62.8,35.5,29.97,NNE,16,0.0,5.0,36,0.00,,---,0.00,VWS V14.00,2013-03-05 11:20:00,
2013-03-05 03:25:00,63.3,35.2,29.98,NNE,16,1.0,4.0,35,0.00,,---,0.00,VWS V14.00,2013-03-05 11:25:00,
2013-03-05 03:30:00,62.8,35.5,29.98,NNE,16,2.0,6.0,36,0.00,,---,0.00,VWS V14.00,2013-03-05 11:30:00,
2013-03-05 03:35:00,62.2,34.9,29.98,NNE,16,3.0,10.0,36,0.00,,---,0.00,VWS V14.00,2013-03-05 11:35:00,
2013-03-05 03:40:00,61.9,35.4,29.98,NNE,16,1.0,7.0,37,0.00,,---,0.00,VWS V14.00,2013-03-05 11:40:00,
2013-03-05 03:45:00,61.6,34.4,29.98,NNE,16,2.0,6.0,36,0.00,,---,0.00,VWS V14.00,2013-03-05 11:45:00,
2013-03-05 03:50:00,61.1,34.7,29.98,NNE,16,0.0,2.0,37,0.00,,---,0.00,VWS V14.00,2013-03-05 11:50:00,
2013-03-05 03:55:00,60.8,35.1,29.98,NNE,16,0.0,0.0,38,0.00,,---,0.00,VWS V14.00,2013-03-05 11:55:00,
2013-03-05 04:00:00,60.9,34.5,29.98,NNE,16,2.0,3.0,37,0.00,,---,0.00,VWS V14.00,2013-03-05 12:00:00,
2013-03-05 04:05:00,60.5,34.8,29.99,NNE,16,2.0,5.0,38,0.00,,---,0.00,VWS V14.00,2013-03-05 12:05:00,
2013-03-05 04:10:00,60.3,34.6,29.98,NNE,16,3.0,4.0,38,0.00,,---,0.00,VWS V14.00,2013-03-05 12:10:00,
2013-03-05 04:15:00,60.3,35.3,29.98,NNE,16,2.0,6.0,39,0.00,,---,0.00,VWS V14.00,2013-03-05 12:15:00,
2013-03-05 04:20:00,60.4,35.3,29.98,NNE,16,2.0,4.0,39,0.00,,---,0.00,VWS V14.00,2013-03-05 12:20:00,
2013-03-05 04:25:00,60.0,35.0,29.98,NNE,16,2.0,7.0,39,0.00,,---,0.00,VWS V14.00,2013-03-05 12:25:00,
2013-03-05 04:30:00,60.0,35.0,29.98,NNE,16,0.0,5.0,39,0.00,,---,0.00,VWS V14.00,2013-03-05 12:30:00,
2013-03-05 04:35:00,59.8,34.8,29.99,NNE,16,3.0,5.0,39,0.00,,---,0.00,VWS V14.00,2013-03-05 12:35:00,
2013-03-05 04:40:00,59.6,35.3,29.99,NNE,16,3.0,9.0,40,0.00,,---,0.00,VWS V14.00,2013-03-05 12:40:00,
2013-03-05 04:45:00,59.9,35.5,29.99,NNE,16,5.0,9.0,40,0.00,,---,0.00,VWS V14.00,2013-03-05 12:45:00,
2013-03-05 04:50:00,60.2,35.2,30.00,NNE,16,3.0,6.0,39,0.00,,---,0.00,VWS V14.00,2013-03-05 12:50:00,
2013-03-05 04:55:00,60.0,35.6,30.00,NNE,16,4.0,9.0,40,0.00,,---,0.00,VWS V14.00,2013-03-05 12:55:00,
2013-03-05 05:00:00,59.9,35.5,30.00,NNE,16,4.0,8.0,40,0.00,,---,0.00,VWS V14.00,2013-03-05 13:00:00,
2013-03-05 05:05:00,59.8,35.5,30.00,NNE,16,2.0,8.0,40,0.00,,---,0.00,VWS V14.00,2013-03-05 13:05:00,
2013-03-05 05:10:00,60.1,35.7,30.00,NNE,16,4.0,8.0,40,0.00,,---,0.00,VWS V14.00,2013-03-05 13:10:00,
2013-03-05 05:15:00,60.8,35.7,29.99,NNE,16,6.0,10.0,39,0.00,,---,0.00,VWS V14.00,2013-03-05 13:15:00,
2013-03-05 05:20:00,61.4,35.6,29.99,NNE,16,12.0,12.0,38,0.00,,---,0.00,VWS V14.00,2013-03-05 13:20:00,
2013-03-05 05:25:00,61.8,35.3,29.99,NNE,16,5.0,13.0,37,0.00,,---,0.00,VWS V14.00,2013-03-05 13:25:00,
2013-03-05 05:30:00,61.9,35.4,29.99,NNE,16,8.0,11.0,37,0.00,,---,0.00,VWS V14.00,2013-03-05 13:30:00,
2013-03-05 05:35:00,61.9,35.4,29.99,NNE,16,3.0,7.0,37,0.00,,---,0.00,VWS V14.00,2013-03-05 13:35:00,
2013-03-05 05:40:00,61.8,35.3,29.99,NNE,16,7.0,8.0,37,0.00,,---,0.00,VWS V14.00,2013-03-05 13:40:00,
2013-03-05 05:45:00,61.9,35.4,29.99,NNE,16,4.0,6.0,37,0.00,,---,0.00,VWS V14.00,2013-03-05 13:45:00,
2013-03-05 05:50:00,62.2,34.9,29.99,NNE,16,0.0,4.0,36,0.00,,---,0.00,VWS V14.00,2013-03-05 13:50:00,
2013-03-05 05:56:00,62.5,35.2,30.00,NNE,16,0.0,0.0,36,0.00,,---,0.00,VWS V14.00,2013-03-05 13:56:00,
2013-03-05 06:01:00,62.5,35.2,30.00,NNE,16,0.0,0.0,36,0.00,,---,0.00,VWS V14.00,2013-03-05 14:01:00,
2013-03-05 06:06:00,61.8,35.3,29.99,NNE,16,2.0,4.0,37,0.00,,---,0.00,VWS V14.00,2013-03-05 14:06:00,
2013-03-05 06:11:00,61.7,35.9,30.00,NNE,16,3.0,6.0,38,0.00,,---,0.00,VWS V14.00,2013-03-05 14:11:00,
2013-03-05 06:16:00,61.6,35.8,30.00,NNE,16,3.0,5.0,38,0.00,,---,0.00,VWS V14.00,2013-03-05 14:16:00,
2013-03-05 06:21:00,61.3,35.5,30.00,NNE,16,6.0,8.0,38,0.00,,---,0.00,VWS V14.00,2013-03-05 14:21:00,
2013-03-05 06:26:00,61.2,35.4,30.00,NNE,16,0.0,6.0,38,0.00,,---,0.00,VWS V14.00,2013-03-05 14:26:00,
2013-03-05 06:31:00,60.4,35.3,30.00,NNE,16,4.0,10.0,39,0.00,,---,0.00,VWS V14.00,2013-03-05 14:31:00,
2013-03-05 06:36:00,60.5,35.4,30.00,NNE,16,12.0,12.0,39,0.00,,---,0.00,VWS V14.00,2013-03-05 14:36:00,
2013-03-05 06:41:00,60.8,35.7,30.01,NNE,16,10.0,11.0,39,0.00,,---,0.00,VWS V14.00,2013-03-05 14:41:00,
2013-03-05 06:46:00,60.9,35.8,30.01,NNE,16,2.0,10.0,39,0.00,,---,0.00,VWS V14.00,2013-03-05 14:46:00,
2013-03-05 06:51:00,60.8,35.7,30.01,NNE,16,4.0,5.0,39,0.00,,---,0.00,VWS V14.00,2013-03-05 14:51:00,
2013-03-05 06:56:00,60.9,35.8,30.01,NNE,16,3.0,6.0,39,0.00,,---,0.00,VWS V14.00,2013-03-05 14:56:00,
2013-03-05 07:01:00,61.0,35.9,30.02,NNE,16,0.0,4.0,39,0.00,,---,0.00,VWS V14.00,2013-03-05 15:01:00,
2013-03-05 07:06:00,60.9,35.8,30.02,NNE,16,0.0,4.0,39,0.00,,---,0.00,VWS V14.00,2013-03-05 15:06:00,
2013-03-05 07:11:00,60.9,35.8,30.02,NNE,16,0.0,0.0,39,0.00,,---,0.00,VWS V14.00,2013-03-05 15:11:00,
2013-03-05 07:16:00,61.0,35.2,30.02,NNE,16,0.0,0.0,38,0.00,,---,0.00,VWS V14.00,2013-03-05 15:16:00,
2013-03-05 07:21:00,61.5,35.7,30.02,NNE,16,0.0,0.0,38,0.00,,---,0.00,VWS V14.00,2013-03-05 15:21:00,
2013-03-05 07:26:00,62.0,36.1,30.02,NNE,16,0.0,0.0,38,0.00,,---,0.00,VWS V14.00,2013-03-05 15:26:00,
2013-03-05 07:31:00,62.4,35.8,30.02,NNE,16,0.0,0.0,37,0.00,,---,0.00,VWS V14.00,2013-03-05 15:31:00,
2013-03-05 07:36:00,63.0,36.3,30.02,NNE,16,0.0,0.0,37,0.00,,---,0.00,VWS V14.00,2013-03-05 15:36:00,
2013-03-05 07:41:00,63.3,36.6,30.02,NNE,16,0.0,0.0,37,0.00,,---,0.00,VWS V14.00,2013-03-05 15:41:00,
2013-03-05 07:46:00,63.6,36.2,30.02,NNE,16,0.0,0.0,36,0.00,,---,0.00,VWS V14.00,2013-03-05 15:46:00,
2013-03-05 07:51:00,64.0,36.5,30.03,NNE,16,0.0,0.0,36,0.00,,---,0.00,VWS V14.00,2013-03-05 15:51:00,
2013-03-05 07:56:00,64.2,37.4,30.03,NNE,16,0.0,0.0,37,0.00,,---,0.00,VWS V14.00,2013-03-05 15:56:00,
2013-03-05 08:01:00,64.3,36.8,30.03,NNE,16,0.0,0.0,36,0.00,,---,0.00,VWS V14.00,2013-03-05 16:01:00,
2013-03-05 08:06:00,64.5,38.3,30.03,NNE,16,0.0,0.0,38,0.00,,---,0.00,VWS V14.00,2013-03-05 16:06:00,
2013-03-05 08:11:00,64.9,38.0,30.03,NNE,16,0.0,0.0,37,0.00,,---,0.00,VWS V14.00,2013-03-05 16:11:00,
2013-03-05 08:16:00,65.4,37.1,30.03,NNE,16,0.0,0.0,35,0.00,,---,0.00,VWS V14.00,2013-03-05 16:16:00,
2013-03-05 08:21:00,65.7,36.6,30.03,NNE,16,0.0,0.0,34,0.00,,---,0.00,VWS V14.00,2013-03-05 16:21:00,
2013-03-05 08:26:00,65.9,37.5,30.03,NNE,16,0.0,0.0,35,0.00,,---,0.00,VWS V14.00,2013-03-05 16:26:00,
2013-03-05 08:31:00,66.2,37.0,30.03,NNE,16,0.0,0.0,34,0.00,,---,0.00,VWS V14.00,2013-03-05 16:31:00,
2013-03-05 08:36:00,66.6,36.6,30.03,NNE,16,0.0,0.0,33,0.00,,---,0.00,VWS V14.00,2013-03-05 16:36:00,
2013-03-05 08:41:00,66.7,36.7,30.03,NNE,16,1.0,4.0,33,0.00,,---,0.00,VWS V14.00,2013-03-05 16:41:00,
2013-03-05 08:46:00,66.8,36.8,30.03,NNE,16,1.0,4.0,33,0.00,,---,0.00,VWS V14.00,2013-03-05 16:46:00,
2013-03-05 08:51:00,67.0,36.2,30.03,NNE,16,2.0,5.0,32,0.00,,---,0.00,VWS V14.00,2013-03-05 16:51:00,
2013-03-05 08:56:00,67.2,36.4,30.03,NNE,16,3.0,5.0,32,0.00,,---,0.00,VWS V14.00,2013-03-05 16:56:00,
2013-03-05 09:01:00,67.4,37.3,30.02,NNE,16,0.0,6.0,33,0.00,,---,0.00,VWS V14.00,2013-03-05 17:01:00,
2013-03-05 09:06:00,67.5,36.6,30.03,NNE,16,3.0,6.0,32,0.00,,---,0.00,VWS V14.00,2013-03-05 17:06:00,
2013-03-05 09:11:00,67.5,36.6,30.02,NNE,16,0.0,8.0,32,0.00,,---,0.00,VWS V14.00,2013-03-05 17:11:00,
2013-03-05 09:16:00,67.8,36.9,30.02,NNE,16,0.0,4.0,32,0.00,,---,0.00,VWS V14.00,2013-03-05 17:16:00,
2013-03-05 09:21:00,68.2,36.4,30.03,NNE,16,1.0,7.0,31,0.00,,---,0.00,VWS V14.00,2013-03-05 17:21:00,
2013-03-05 09:26:00,68.6,36.8,30.02,NNE,16,8.0,9.0,31,0.00,,---,0.00,VWS V14.00,2013-03-05 17:26:00,
2013-03-05 09:31:00,68.9,37.0,30.02,NNE,16,4.0,10.0,31,0.00,,---,0.00,VWS V14.00,2013-03-05 17:31:00,
2013-03-05 09:36:00,69.4,37.5,30.02,NNE,16,2.0,9.0,31,0.00,,---,0.00,VWS V14.00,2013-03-05 17:36:00,
2013-03-05 09:41:00,69.7,36.9,30.02,NNE,16,7.0,13.0,30,0.00,,---,0.00,VWS V14.00,2013-03-05 17:41:00,
2013-03-05 09:46:00,69.7,36.9,30.02,NE,55,8.0,14.0,30,0.00,,---,0.00,VWS V14.00,2013-03-05 17:46:00,
2013-03-05 09:51:00,69.7,36.9,30.02,ENE,63,10.0,15.0,30,0.00,,---,0.00,VWS V14.00,2013-03-05 17:51:00,
2013-03-05 09:56:00,69.9,36.2,30.02,ENE,64,11.0,13.0,29,0.00,,---,0.00,VWS V14.00,2013-03-05 17:56:00,
2013-03-05 10:01:00,70.0,36.3,30.02,ENE,65,9.0,15.0,29,0.00,,---,0.00,VWS V14.00,2013-03-05 18:01:00,
2013-03-05 10:06:00,70.2,36.5,30.02,ENE,69,11.0,15.0,29,0.00,,---,0.00,VWS V14.00,2013-03-05 18:06:00,
2013-03-05 10:11:00,70.4,36.7,30.02,ENE,69,9.0,13.0,29,0.00,,---,0.00,VWS V14.00,2013-03-05 18:11:00,
2013-03-05 10:16:00,70.8,37.0,30.02,ENE,76,14.0,17.0,29,0.00,,---,0.00,VWS V14.00,2013-03-05 18:16:00,
2013-03-05 10:21:00,71.5,37.6,30.02,East,91,8.0,21.0,29,0.00,,---,0.00,VWS V14.00,2013-03-05 18:21:00,
2013-03-05 10:26:00,72.0,38.0,30.02,East,92,0.0,16.0,29,0.00,,---,0.00,VWS V14.00,2013-03-05 18:26:00,
2013-03-05 10:31:00,72.6,37.7,30.02,ESE,115,3.0,22.0,28,0.00,,---,0.00,VWS V14.00,2013-03-05 18:31:00,
2013-03-05 10:36:00,72.7,37.8,30.02,SE,144,14.0,22.0,28,0.00,,---,0.00,VWS V14.00,2013-03-05 18:36:00,
2013-03-05 10:41:00,72.4,37.5,30.01,SSE,149,10.0,21.0,28,0.00,,---,0.00,VWS V14.00,2013-03-05 18:41:00,
2013-03-05 10:46:00,72.6,37.7,30.01,SSE,151,12.0,22.0,28,0.00,,---,0.00,VWS V14.00,2013-03-05 18:46:00,
2013-03-05 10:51:00,72.8,37.8,30.01,SSE,156,10.0,24.0,28,0.00,,---,0.00,VWS V14.00,2013-03-05 18:51:00,
2013-03-05 10:56:00,72.9,37.9,30.01,SE,144,14.0,27.0,28,0.00,,---,0.00,VWS V14.00,2013-03-05 18:56:00,
2013-03-05 11:01:00,73.1,38.1,30.01,SSE,148,21.0,21.0,28,0.00,,---,0.00,VWS V14.00,2013-03-05 19:01:00,
2013-03-05 11:06:00,73.0,38.0,30.01,SE,146,13.0,24.0,28,0.00,,---,0.00,VWS V14.00,2013-03-05 19:06:00,
2013-03-05 11:11:00,73.4,38.3,30.00,SE,138,12.0,24.0,28,0.00,,---,0.00,VWS V14.00,2013-03-05 19:11:00,
2013-03-05 11:16:00,73.5,38.4,30.00,SSE,154,13.0,26.0,28,0.00,,---,0.00,VWS V14.00,2013-03-05 19:16:00,
2013-03-05 11:21:00,73.6,38.5,30.00,SSE,159,15.0,22.0,28,0.00,,---,0.00,VWS V14.00,2013-03-05 19:21:00,
2013-03-05 11:26:00,73.7,38.6,30.00,SSE,154,11.0,24.0,28,0.00,,---,0.00,VWS V14.00,2013-03-05 19:26:00,
2013-03-05 11:31:00,74.3,38.2,29.99,SSE,155,19.0,25.0,27,0.00,,---,0.00,VWS V14.00,2013-03-05 19:31:00,
2013-03-05 11:36:00,74.4,38.3,29.99,SSE,157,14.0,25.0,27,0.00,,---,0.00,VWS V14.00,2013-03-05 19:36:00,
2013-03-05 11:41:00,74.7,37.6,29.99,SE,141,14.0,30.0,26,0.00,,---,0.00,VWS V14.00,2013-03-05 19:41:00,
2013-03-05 11:46:00,74.8,38.6,29.99,SSE,155,14.0,23.0,27,0.00,,---,0.00,VWS V14.00,2013-03-05 19:46:00,
2013-03-05 11:51:00,74.8,38.6,29.98,SSE,156,18.0,26.0,27,0.00,,---,0.00,VWS V14.00,2013-03-05 19:51:00,
2013-03-05 11:56:00,74.7,38.5,29.98,SSE,161,21.0,26.0,27,0.00,,---,0.00,VWS V14.00,2013-03-05 19:56:00,
2013-03-05 12:01:00,75.0,37.8,29.98,SE,144,18.0,25.0,26,0.00,,---,0.00,VWS V14.00,2013-03-05 20:01:00,
2013-03-05 12:06:00,74.9,38.7,29.98,SSE,161,14.0,29.0,27,0.00,,---,0.00,VWS V14.00,2013-03-05 20:06:00,
2013-03-05 12:11:00,75.2,38.0,29.97,SSE,149,18.0,29.0,26,0.00,,---,0.00,VWS V14.00,2013-03-05 20:11:00,
2013-03-05 12:16:00,74.7,37.6,29.97,South,170,21.0,29.0,26,0.00,,---,0.00,VWS V14.00,2013-03-05 20:16:00,
2013-03-05 12:21:00,74.8,38.6,29.97,SSE,147,11.0,24.0,27,0.00,,---,0.00,VWS V14.00,2013-03-05 20:21:00,
2013-03-05 12:26:00,75.1,38.9,29.96,SSE,159,21.0,27.0,27,0.00,,---,0.00,VWS V14.00,2013-03-05 20:26:00,
2013-03-05 12:31:00,75.2,39.0,29.96,SSE,160,13.0,25.0,27,0.00,,---,0.00,VWS V14.00,2013-03-05 20:31:00,
2013-03-05 12:36:00,75.2,38.0,29.96,SSE,148,14.0,29.0,26,0.00,,---,0.00,VWS V14.00,2013-03-05 20:36:00,
2013-03-05 12:41:00,75.2,38.0,29.95,SE,145,12.0,31.0,26,0.00,,---,0.00,VWS V14.00,2013-03-05 20:41:00,
2013-03-05 12:46:00,74.9,38.7,29.95,SSE,154,10.0,28.0,27,0.00,,---,0.00,VWS V14.00,2013-03-05 20:46:00,
2013-03-05 12:51:00,75.1,38.9,29.95,SSE,159,9.0,31.0,27,0.00,,---,0.00,VWS V14.00,2013-03-05 20:51:00,
2013-03-05 12:56:00,75.5,39.2,29.95,SSE,155,15.0,28.0,27,0.00,,---,0.00,VWS V14.00,2013-03-05 20:56:00,
2013-03-05 13:01:00,75.3,38.1,29.95,SSE,166,25.0,29.0,26,0.00,,---,0.00,VWS V14.00,2013-03-05 21:01:00,
2013-03-05 13:06:00,75.3,39.0,29.94,SSE,165,6.0,36.0,27,0.00,,---,0.00,VWS V14.00,2013-03-05 21:06:00,
2013-03-05 13:11:00,75.5,38.2,29.94,SE,146,6.0,25.0,26,0.00,,---,0.00,VWS V14.00,2013-03-05 21:11:00,
2013-03-05 13:16:00,75.5,38.2,29.94,SSE,154,11.0,31.0,26,0.00,,---,0.00,VWS V14.00,2013-03-05 21:16:00,
2013-03-05 13:21:00,75.4,39.1,29.94,SSE,158,13.0,28.0,27,0.00,,---,0.00,VWS V14.00,2013-03-05 21:21:00,
2013-03-05 13:26:00,75.6,38.3,29.93,SSE,165,12.0,25.0,26,0.00,,---,0.00,VWS V14.00,2013-03-05 21:26:00,
2013-03-05 13:31:00,75.7,39.4,29.93,SSE,159,8.0,25.0,27,0.00,,---,0.00,VWS V14.00,2013-03-05 21:31:00,
2013-03-05 13:36:00,75.8,38.5,29.93,SSE,155,17.0,31.0,26,0.00,,---,0.00,VWS V14.00,2013-03-05 21:36:00,
2013-03-05 13:41:00,75.8,38.5,29.93,SSE,161,18.0,23.0,26,0.00,,---,0.00,VWS V14.00,2013-03-05 21:41:00,
2013-03-05 13:46:00,75.7,38.4,29.93,SE,144,13.0,27.0,26,0.00,,---,0.00,VWS V14.00,2013-03-05 21:46:00,
2013-03-05 13:51:00,75.5,38.2,29.93,SE,144,12.0,25.0,26,0.00,,---,0.00,VWS V14.00,2013-03-05 21:51:00,
2013-03-05 13:56:00,75.6,39.3,29.93,SSE,150,14.0,20.0,27,0.00,,---,0.00,VWS V14.00,2013-03-05 21:56:00,
2013-03-05 14:01:00,75.8,38.5,29.93,SSE,161,9.0,26.0,26,0.00,,---,0.00,VWS V14.00,2013-03-05 22:01:00,
2013-03-05 14:06:00,75.9,38.6,29.92,SSE,157,16.0,26.0,26,0.00,,---,0.00,VWS V14.00,2013-03-05 22:06:00,
2013-03-05 14:11:00,75.5,38.2,29.92,South,181,12.0,18.0,26,0.00,,---,0.00,VWS V14.00,2013-03-05 22:11:00,
2013-03-05 14:16:00,76.0,38.7,29.92,South,186,8.0,20.0,26,0.00,,---,0.00,VWS V14.00,2013-03-05 22:16:00,
2013-03-05 14:21:00,76.3,37.9,29.91,SSE,162,17.0,18.0,25,0.00,,---,0.00,VWS V14.00,2013-03-05 22:21:00,
2013-03-05 14:26:00,75.9,37.6,29.92,SSE,154,19.0,28.0,25,0.00,,---,0.00,VWS V14.00,2013-03-05 22:26:00,
2013-03-05 14:32:00,75.7,37.4,29.92,SE,146,10.0,14.0,25,0.00,,---,0.00,VWS V14.00,2013-03-05 22:32:00,
2013-03-05 14:37:00,75.8,37.5,29.91,SSE,153,10.0,16.0,25,0.00,,---,0.00,VWS V14.00,2013-03-05 22:37:00,
2013-03-05 14:42:00,75.8,37.5,29.91,SSE,147,11.0,12.0,25,0.00,,---,0.00,VWS V14.00,2013-03-05 22:42:00,
2013-03-05 14:47:00,76.0,38.7,29.91,SSE,155,12.0,15.0,26,0.00,,---,0.00,VWS V14.00,2013-03-05 22:47:00,
2013-03-05 14:52:00,76.1,37.8,29.91,SSE,148,20.0,22.0,25,0.00,,---,0.00,VWS V14.00,2013-03-05 22:52:00,
2013-03-05 14:57:00,75.7,37.4,29.91,SSE,148,17.0,18.0,25,0.00,,---,0.00,VWS V14.00,2013-03-05 22:57:00,
2013-03-05 15:02:00,75.8,37.5,29.91,South,186,2.0,14.0,25,0.00,,---,0.00,VWS V14.00,2013-03-05 23:02:00,
2013-03-05 15:07:00,76.4,38.0,29.91,SSE,150,17.0,19.0,25,0.00,,---,0.00,VWS V14.00,2013-03-05 23:07:00,
2013-03-05 15:12:00,75.8,36.5,29.91,SSE,159,26.0,26.0,24,0.00,,---,0.00,VWS V14.00,2013-03-05 23:12:00,
2013-03-05 15:17:00,75.5,37.2,29.91,SSE,154,17.0,30.0,25,0.00,,---,0.00,VWS V14.00,2013-03-05 23:17:00,
2013-03-05 15:22:00,75.4,37.2,29.90,SSE,152,13.0,28.0,25,0.00,,---,0.00,VWS V14.00,2013-03-05 23:22:00,
2013-03-05 15:27:00,75.5,37.2,29.90,SSE,149,21.0,30.0,25,0.00,,---,0.00,VWS V14.00,2013-03-05 23:27:00,
2013-03-05 15:32:00,75.2,37.0,29.90,SSE,154,13.0,30.0,25,0.00,,---,0.00,VWS V14.00,2013-03-05 23:32:00,
2013-03-05 15:37:00,75.2,37.0,29.90,SSE,161,26.0,27.0,25,0.00,,---,0.00,VWS V14.00,2013-03-05 23:37:00,
2013-03-05 15:42:00,75.0,37.8,29.90,SSE,165,22.0,22.0,26,0.00,,---,0.00,VWS V14.00,2013-03-05 23:42:00,
2013-03-05 15:47:00,74.9,37.7,29.90,SE,144,16.0,19.0,26,0.00,,---,0.00,VWS V14.00,2013-03-05 23:47:00,
2013-03-05 15:52:00,74.8,37.7,29.90,SSE,153,17.0,20.0,26,0.00,,---,0.00,VWS V14.00,2013-03-05 23:52:00,
2013-03-05 15:57:00,74.7,37.6,29.90,SSE,153,10.0,18.0,26,0.00,,---,0.00,VWS V14.00,2013-03-05 23:57:00,
2013-03-05 16:02:00,74.7,37.6,29.90,SE,131,16.0,18.0,26,0.00,,---,0.00,VWS V14.00,2013-03-06 00:02:00,
2013-03-05 16:07:00,74.6,37.5,29.90,SSE,157,16.0,23.0,26,0.00,,---,0.00,VWS V14.00,2013-03-06 00:07:00,
2013-03-05 16:12:00,74.7,37.6,29.89,SSE,159,12.0,16.0,26,0.00,,---,0.00,VWS V14.00,2013-03-06 00:12:00,
2013-03-05 16:17:00,74.6,37.5,29.90,SSE,150,10.0,12.0,26,0.00,,---,0.00,VWS V14.00,2013-03-06 00:17:00,
2013-03-05 16:22:00,74.6,37.5,29.90,SSE,153,8.0,14.0,26,0.00,,---,0.00,VWS V14.00,2013-03-06 00:22:00,
2013-03-05 16:27:00,74.7,37.6,29.90,SE,139,13.0,23.0,26,0.00,,---,0.00,VWS V14.00,2013-03-06 00:27:00,
2013-03-05 16:32:00,74.4,37.3,29.89,SE,128,11.0,18.0,26,0.00,,---,0.00,VWS V14.00,2013-03-06 00:32:00,
2013-03-05 16:37:00,74.0,37.9,29.89,SSE,152,14.0,20.0,27,0.00,,---,0.00,VWS V14.00,2013-03-06 00:37:00,
2013-03-05 16:42:00,73.9,37.8,29.89,SSE,153,12.0,14.0,27,0.00,,---,0.00,VWS V14.00,2013-03-06 00:42:00,
2013-03-05 16:47:00,73.8,37.8,29.89,SSE,150,16.0,16.0,27,0.00,,---,0.00,VWS V14.00,2013-03-06 00:47:00,
2013-03-05 16:52:00,73.6,37.6,29.89,SSE,160,10.0,14.0,27,0.00,,---,0.00,VWS V14.00,2013-03-06 00:52:00,
2013-03-05 16:57:00,73.3,38.3,29.89,SSE,158,13.0,18.0,28,0.00,,---,0.00,VWS V14.00,2013-03-06 00:57:00,
2013-03-05 17:02:00,73.2,38.2,29.89,SSE,161,16.0,18.0,28,0.00,,---,0.00,VWS V14.00,2013-03-06 01:02:00,
2013-03-05 17:07:00,73.0,38.0,29.89,SSE,157,9.0,18.0,28,0.00,,---,0.00,VWS V14.00,2013-03-06 01:07:00,
2013-03-05 17:12:00,72.8,37.8,29.89,SSE,157,7.0,12.0,28,0.00,,---,0.00,VWS V14.00,2013-03-06 01:12:00,
2013-03-05 17:17:00,72.7,37.8,29.89,SSE,160,15.0,15.0,28,0.00,,---,0.00,VWS V14.00,2013-03-06 01:17:00,
2013-03-05 17:22:00,72.4,38.4,29.89,SSE,161,6.0,12.0,29,0.00,,---,0.00,VWS V14.00,2013-03-06 01:22:00,
2013-03-05 17:27:00,72.1,39.0,29.89,SSE,161,3.0,10.0,30,0.00,,---,0.00,VWS V14.00,2013-03-06 01:27:00,
2013-03-05 17:32:00,71.8,38.7,29.90,SSE,161,12.0,12.0,30,0.00,,---,0.00,VWS V14.00,2013-03-06 01:32:00,
2013-03-05 17:37:00,71.5,39.3,29.90,SSE,161,4.0,10.0,31,0.00,,---,0.00,VWS V14.00,2013-03-06 01:37:00,
2013-03-05 17:42:00,71.2,39.0,29.90,SSE,161,5.0,5.0,31,0.00,,---,0.00,VWS V14.00,2013-03-06 01:42:00,
2013-03-05 17:47:00,71.0,39.7,29.90,SSE,161,0.0,0.0,32,0.00,,---,0.00,VWS V14.00,2013-03-06 01:47:00,
2013-03-05 17:52:00,70.7,39.4,29.90,SSE,161,0.0,0.0,32,0.00,,---,0.00,VWS V14.00,2013-03-06 01:52:00,
2013-03-05 17:57:00,70.4,40.7,29.90,SSE,161,0.0,0.0,34,0.00,,---,0.00,VWS V14.00,2013-03-06 01:57:00,
2013-03-05 18:02:00,70.1,41.9,29.91,SSE,161,0.0,0.0,36,0.00,,---,0.00,VWS V14.00,2013-03-06 02:02:00,
2013-03-05 18:07:00,69.9,41.8,29.91,SSE,161,6.0,6.0,36,0.00,,---,0.00,VWS V14.00,2013-03-06 02:07:00,
2013-03-05 18:12:00,69.6,41.5,29.91,South,189,4.0,6.0,36,0.00,,---,0.00,VWS V14.00,2013-03-06 02:12:00,
2013-03-05 18:17:00,69.2,41.1,29.91,South,189,3.0,5.0,36,0.00,,---,0.00,VWS V14.00,2013-03-06 02:17:00,
2013-03-05 18:22:00,68.7,41.4,29.91,SW,221,10.0,12.0,37,0.00,,---,0.00,VWS V14.00,2013-03-06 02:22:00,
2013-03-05 18:27:00,68.5,41.9,29.92,NNW,327,12.0,20.0,38,0.00,,---,0.00,VWS V14.00,2013-03-06 02:27:00,
2013-03-05 18:32:00,68.2,42.3,29.91,NW,306,6.0,16.0,39,0.00,,---,0.00,VWS V14.00,2013-03-06 02:32:00,
2013-03-05 18:37:00,67.8,42.6,29.91,NW,313,12.0,22.0,40,0.00,,---,0.00,VWS V14.00,2013-03-06 02:37:00,
2013-03-05 18:42:00,67.6,42.4,29.92,NW,315,18.0,20.0,40,0.00,,---,0.00,VWS V14.00,2013-03-06 02:42:00,
2013-03-05 18:47:00,67.4,42.3,29.92,NW,315,11.0,18.0,40,0.00,,---,0.00,VWS V14.00,2013-03-06 02:47:00,
2013-03-05 18:53:00,67.2,42.1,29.92,NW,317,14.0,16.0,40,0.00,,---,0.00,VWS V14.00,2013-03-06 02:53:00,
2013-03-05 18:58:00,67.1,42.0,29.92,NW,314,6.0,16.0,40,0.00,,---,0.00,VWS V14.00,2013-03-06 02:58:00,
2013-03-05 19:03:00,66.8,41.7,29.92,NW,316,13.0,18.0,40,0.00,,---,0.00,VWS V14.00,2013-03-06 03:03:00,
2013-03-05 19:08:00,66.7,42.3,29.92,NW,309,17.0,18.0,41,0.00,,---,0.00,VWS V14.00,2013-03-06 03:08:00,
2013-03-05 19:13:00,66.5,42.1,29.92,NW,309,13.0,20.0,41,0.00,,---,0.00,VWS V14.00,2013-03-06 03:13:00,
2013-03-05 19:18:00,66.3,41.9,29.93,NW,319,10.0,21.0,41,0.00,,---,0.00,VWS V14.00,2013-03-06 03:18:00,
2013-03-05 19:23:00,66.2,42.5,29.93,NW,311,11.0,21.0,42,0.00,,---,0.00,VWS V14.00,2013-03-06 03:23:00,
2013-03-05 19:28:00,66.1,42.4,29.93,NW,315,16.0,22.0,42,0.00,,---,0.00,VWS V14.00,2013-03-06 03:28:00,
2013-03-05 19:33:00,66.0,42.3,29.93,NW,320,8.0,28.0,42,0.00,,---,0.00,VWS V14.00,2013-03-06 03:33:00,
2013-03-05 19:38:00,65.8,42.7,29.93,NW,309,15.0,26.0,43,0.00,,---,0.00,VWS V14.00,2013-03-06 03:38:00,
2013-03-05 19:43:00,65.5,42.4,29.93,NW,315,14.0,24.0,43,0.00,,---,0.00,VWS V14.00,2013-03-06 03:43:00,
2013-03-05 19:48:00,65.3,42.8,29.93,NW,306,14.0,23.0,44,0.00,,---,0.00,VWS V14.00,2013-03-06 03:48:00,
2013-03-05 19:53:00,65.3,42.8,29.93,NW,313,16.0,22.0,44,0.00,,---,0.00,VWS V14.00,2013-03-06 03:53:00,
2013-03-05 19:58:00,65.1,43.3,29.93,NW,313,14.0,18.0,45,0.00,,---,0.00,VWS V14.00,2013-03-06 03:58:00,
2013-03-05 20:03:00,64.9,43.1,29.93,NW,309,20.0,22.0,45,0.00,,---,0.00,VWS V14.00,2013-03-06 04:03:00,
2013-03-05 20:08:00,64.6,43.4,29.93,NW,317,13.0,25.0,46,0.00,,---,0.00,VWS V14.00,2013-03-06 04:08:00,
2013-03-05 20:13:00,64.5,43.3,29.93,NW,317,12.0,16.0,46,0.00,,---,0.00,VWS V14.00,2013-03-06 04:13:00,
2013-03-05 20:18:00,64.4,43.2,29.93,NW,315,20.0,25.0,46,0.00,,---,0.00,VWS V14.00,2013-03-06 04:18:00,
2013-03-05 20:23:00,64.2,43.6,29.93,NW,304,12.0,26.0,47,0.00,,---,0.00,VWS V14.00,2013-03-06 04:23:00,
2013-03-05 20:28:00,63.8,43.8,29.93,NW,321,9.0,22.0,48,0.00,,---,0.00,VWS V14.00,2013-03-06 04:28:00,
2013-03-05 20:33:00,63.7,43.1,29.93,NW,323,16.0,18.0,47,0.00,,---,0.00,VWS V14.00,2013-03-06 04:33:00,
2013-03-05 20:38:00,63.7,43.1,29.93,NNW,348,16.0,20.0,47,0.00,,---,0.00,VWS V14.00,2013-03-06 04:38:00,
2013-03-05 20:43:00,63.8,43.2,29.92,NW,321,16.0,17.0,47,0.00,,---,0.00,VWS V14.00,2013-03-06 04:43:00,
2013-03-05 20:48:00,63.8,42.6,29.92,NW,317,14.0,23.0,46,0.00,,---,0.00,VWS V14.00,2013-03-06 04:48:00,
2013-03-05 20:53:00,63.8,42.6,29.92,NW,323,14.0,28.0,46,0.00,,---,0.00,VWS V14.00,2013-03-06 04:53:00,
2013-03-05 20:58:00,63.5,42.9,29.92,NW,309,12.0,24.0,47,0.00,,---,0.00,VWS V14.00,2013-03-06 04:58:00,
2013-03-05 21:01:00,63.2,43.2,29.92,NW,315,12.0,24.0,48,0.00,,---,0.00,VWS V14.00,2013-03-06 05:01:00,
2013-03-05 21:03:00,63.0,43.0,29.92,NW,325,13.0,16.0,48,0.00,,---,0.00,VWS V14.00,2013-03-06 05:03:00,
2013-03-05 21:06:00,62.8,42.8,29.92,NW,325,14.0,16.0,48,0.00,,---,0.00,VWS V14.00,2013-03-06 05:06:00,
2013-03-05 21:08:00,62.7,43.3,29.92,NW,322,14.0,20.0,49,0.00,,---,0.00,VWS V14.00,2013-03-06 05:08:00,
2013-03-05 21:13:00,62.2,43.3,29.92,NW,315,12.0,20.0,50,0.00,,---,0.00,VWS V14.00,2013-03-06 05:13:00,
2013-03-05 21:18:00,61.8,43.5,29.92,NW,322,13.0,18.0,51,0.00,,---,0.00,VWS V14.00,2013-03-06 05:18:00,
2013-03-05 21:23:00,61.4,43.6,29.92,NW,321,8.0,21.0,52,0.00,,---,0.00,VWS V14.00,2013-03-06 05:23:00,
2013-03-05 21:28:00,61.2,44.0,29.92,NW,306,14.0,22.0,53,0.00,,---,0.00,VWS V14.00,2013-03-06 05:28:00,
2013-03-05 21:33:00,60.9,43.7,29.92,WNW,292,22.0,22.0,53,0.00,,---,0.00,VWS V14.00,2013-03-06 05:33:00,
2013-03-05 21:38:00,60.9,43.2,29.92,NW,306,21.0,28.0,52,0.00,,---,0.00,VWS V14.00,2013-03-06 05:38:00,
2013-03-05 21:43:00,60.9,43.2,29.92,NW,319,20.0,24.0,52,0.00,,---,0.00,VWS V14.00,2013-03-06 05:43:00,
2013-03-05 21:48:00,60.6,43.4,29.92,NW,306,20.0,26.0,53,0.00,,---,0.00,VWS V14.00,2013-03-06 05:48:00,
2013-03-05 21:53:00,60.4,43.2,29.92,WNW,300,17.0,23.0,53,0.00,,---,0.00,VWS V14.00,2013-03-06 05:53:00,
2013-03-05 21:58:00,60.4,43.2,29.92,WNW,302,13.0,24.0,53,0.00,,---,0.00,VWS V14.00,2013-03-06 05:58:00,
2013-03-05 22:03:00,60.5,42.8,29.92,NW,316,24.0,26.0,52,0.00,,---,0.00,VWS V14.00,2013-03-06 06:03:00,
2013-03-05 22:08:00,60.1,43.4,29.92,NW,315,32.0,34.0,54,0.00,,---,0.00,VWS V14.00,2013-03-06 06:08:00,
2013-03-05 22:13:00,59.6,43.4,29.92,WNW,298,24.0,26.0,55,0.00,,---,0.00,VWS V14.00,2013-03-06 06:13:00,
2013-03-05 22:18:00,59.0,43.8,29.92,NW,306,18.0,38.0,57,0.00,,---,0.00,VWS V14.00,2013-03-06 06:18:00,
2013-03-05 22:23:00,58.5,44.2,29.92,NNW,328,32.0,39.0,59,0.00,,---,0.00,VWS V14.00,2013-03-06 06:23:00,
2013-03-05 22:28:00,58.3,44.5,29.92,NW,313,31.0,42.0,60,0.00,,---,0.00,VWS V14.00,2013-03-06 06:28:00,
2013-03-05 22:33:00,57.8,44.5,29.92,WNW,293,34.0,42.0,61,0.00,,---,0.00,VWS V14.00,2013-03-06 06:33:00,
2013-03-05 22:38:00,58.0,44.2,29.92,NW,319,25.0,35.0,60,0.00,,---,0.00,VWS V14.00,2013-03-06 06:38:00,
2013-03-05 22:43:00,58.2,44.0,29.92,NW,315,39.0,46.0,59,0.00,,---,0.00,VWS V14.00,2013-03-06 06:43:00,
2013-03-05 22:48:00,57.9,44.5,29.92,WNW,298,41.0,41.0,61,0.00,,---,0.00,VWS V14.00,2013-03-06 06:48:00,
2013-03-05 22:53:00,57.8,44.5,29.92,NNW,327,18.0,36.0,61,0.00,,---,0.00,VWS V14.00,2013-03-06 06:53:00,
2013-03-05 22:58:00,57.8,44.0,29.92,NW,313,38.0,39.0,60,0.00,,---,0.00,VWS V14.00,2013-03-06 06:58:00,
2013-03-05 23:03:00,57.9,44.1,29.92,NW,321,33.0,43.0,60,0.00,,---,0.00,VWS V14.00,2013-03-06 07:03:00,
2013-03-05 23:08:00,57.7,43.9,29.92,WNW,298,20.0,33.0,60,0.00,,---,0.00,VWS V14.00,2013-03-06 07:08:00,
2013-03-05 23:13:00,57.7,43.5,29.92,NW,322,17.0,36.0,59,0.00,,---,0.00,VWS V14.00,2013-03-06 07:13:00,
2013-03-05 23:18:00,58.1,43.4,29.92,WNW,299,21.0,36.0,58,0.00,,---,0.00,VWS V14.00,2013-03-06 07:18:00,
2013-03-05 23:23:00,58.0,43.3,29.91,NNW,329,33.0,42.0,58,0.00,,---,0.00,VWS V14.00,2013-03-06 07:23:00,
2013-03-05 23:28:00,58.1,43.4,29.92,NW,319,25.0,40.0,58,0.00,,---,0.00,VWS V14.00,2013-03-06 07:28:00,
2013-03-05 23:33:00,58.0,43.3,29.92,NW,315,32.0,36.0,58,0.00,,---,0.00,VWS V14.00,2013-03-06 07:33:00,
2013-03-05 23:38:00,57.9,43.2,29.92,WNW,297,35.0,38.0,58,0.00,,---,0.00,VWS V14.00,2013-03-06 07:38:00,
2013-03-05 23:43:00,57.6,43.4,29.92,WNW,282,22.0,36.0,59,0.00,,---,0.00,VWS V14.00,2013-03-06 07:43:00,
2013-03-05 23:48:00,57.6,43.4,29.92,WNW,296,30.0,39.0,59,0.00,,---,0.00,VWS V14.00,2013-03-06 07:48:00,
2013-03-05 23:53:00,57.7,43.5,29.92,NW,306,37.0,41.0,59,0.00,,---,0.00,VWS V14.00,2013-03-06 07:53:00,
2013-03-05 23:58:00,57.5,43.3,29.92,NW,315,34.0,37.0,59,0.00,,---,0.00,VWS V14.00,2013-03-06 07:58:00,